When you browse on this site, cookies collect data to enhance your experience and personalize the content and advertising you see.
Visit our Privacy Policy to learn more. By continuing to use the site, you agree to this use of cookies and data.
  • en France
  • Liste des pays
  • À 7 jours
  • Température de l'eau
  • Carte satellitaire
  • Carte météo
  • Widgets météo
  • user-avatar
    Se connecter

    Météo par heure à Chertovaya

    Ce jour, 19 Février, Mardi

    Heure Température Précipitation Vent Pression Humidité
    00:00 -9°C° 0 mm 1 m/s 748 mmHg 93%
    01:00 -9°C° 0 mm 1 m/s 748 mmHg 93%
    02:00 -10°C° 0 mm 0 m/s 748 mmHg 93%
    03:00 -10°C° 0 mm 1 m/s 748 mmHg 93%
    04:00 -9°C° 0 mm 1 m/s 748 mmHg 92%
    05:00 -10°C° 0 mm 2 m/s 748 mmHg 91%
    06:00 -10°C° 0 mm 2 m/s 748 mmHg 91%
    07:00 -10°C° 0 mm 2 m/s 748 mmHg 90%
    08:00 -12°C° 0 mm 3 m/s 748 mmHg 90%
    09:00 -9°C° 0 mm 3 m/s 747 mmHg 89%
    10:00 -8°C° 0 mm 4 m/s 747 mmHg 88%
    11:00 -7°C° 0 mm 4 m/s 747 mmHg 87%
    12:00 -5°C° 0 mm 4 m/s 746 mmHg 85%
    13:00 -5°C° 0 mm 5 m/s 746 mmHg 84%
    14:00 -4°C° 0 mm 5 m/s 745 mmHg 83%
    15:00 -5°C° 0 mm 5 m/s 745 mmHg 84%
    16:00 -6°C° 0 mm 5 m/s 744 mmHg 85%
    17:00 -5°C° 0 mm 4 m/s 744 mmHg 86%
    18:00 -7°C° 0 mm 5 m/s 744 mmHg 86%
    19:00 -7°C° 0 mm 5 m/s 743 mmHg 87%
    20:00 -8°C° 0 mm 5 m/s 743 mmHg 87%
    21:00 -8°C° 0 mm 5 m/s 742 mmHg 86%
    22:00 -9°C° 0 mm 6 m/s 741 mmHg 86%
    23:00 -9°C° 0 mm 6 m/s 741 mmHg 85%

    Demain, 20 Février, Mercredi

    Heure Température Précipitation Vent Pression Humidité
    00:00 -9°C° 0 mm 6 m/s 740 mmHg 86%
    01:00 -8°C° 0 mm 6 m/s 740 mmHg 87%
    02:00 -8°C° 0 mm 6 m/s 739 mmHg 88%
    03:00 -6°C° 0 mm 6 m/s 738 mmHg 89%
    04:00 -6°C° 0 mm 6 m/s 738 mmHg 90%
    05:00 -5°C° 0 mm 6 m/s 737 mmHg 91%
    06:00 -5°C° 0 mm 6 m/s 737 mmHg 91%
    07:00 -5°C° 0 mm 6 m/s 736 mmHg 92%
    08:00 -4°C° 0 mm 6 m/s 736 mmHg 93%
    09:00 -4°C° 0.1 mm 6 m/s 736 mmHg 93%
    10:00 -3°C° 0.1 mm 6 m/s 736 mmHg 93%
    11:00 -3°C° 0.1 mm 6 m/s 735 mmHg 92%
    12:00 -1°C° 0.2 mm 5 m/s 735 mmHg 94%
    13:00 -1°C° 0.2 mm 5 m/s 735 mmHg 95%
    14:00 -1°C° 0.2 mm 5 m/s 735 mmHg 96%
    15:00 -1°C° 0 mm 5 m/s 735 mmHg 96%
    16:00 -1°C° 0 mm 5 m/s 735 mmHg 95%
    17:00 -1°C° 0 mm 5 m/s 735 mmHg 94%
    18:00 -1°C° 0 mm 5 m/s 735 mmHg 94%
    19:00 -1°C° 0 mm 5 m/s 735 mmHg 94%
    20:00 -1°C° 0 mm 5 m/s 735 mmHg 95%
    21:00 -1°C° 0 mm 5 m/s 734 mmHg 94%
    22:00 -2°C° 0 mm 6 m/s 734 mmHg 93%
    23:00 -2°C° 0 mm 6 m/s 733 mmHg 93%

    Après-demain, 21 Février, Jeudi

    Heure Température Précipitation Vent Pression Humidité
    00:00 -2°C° 0.3 mm 6 m/s 733 mmHg 92%
    01:00 -2°C° 0.3 mm 6 m/s 732 mmHg 91%
    02:00 -2°C° 0.3 mm 6 m/s 732 mmHg 90%
    03:00 -4°C° 0.2 mm 6 m/s 732 mmHg 88%
    04:00 -5°C° 0.2 mm 6 m/s 732 mmHg 85%
    05:00 -6°C° 0.2 mm 5 m/s 731 mmHg 82%
    06:00 -6°C° 0.1 mm 6 m/s 732 mmHg 84%
    07:00 -6°C° 0.1 mm 6 m/s 732 mmHg 87%
    08:00 -6°C° 0.1 mm 6 m/s 733 mmHg 89%
    09:00 -7°C° 0.3 mm 7 m/s 733 mmHg 88%
    10:00 -6°C° 0.3 mm 7 m/s 733 mmHg 87%
    11:00 -6°C° 0.3 mm 7 m/s 733 mmHg 86%
    12:00 -6°C° 0.2 mm 7 m/s 733 mmHg 83%
    13:00 -6°C° 0.2 mm 7 m/s 734 mmHg 81%
    14:00 -7°C° 0.2 mm 7 m/s 734 mmHg 79%
    15:00 -6°C° 0 mm 6 m/s 734 mmHg 80%
    16:00 -8°C° 0 mm 6 m/s 735 mmHg 81%
    17:00 -8°C° 0 mm 5 m/s 735 mmHg 82%
    18:00 -8°C° 0 mm 5 m/s 736 mmHg 82%
    19:00 -8°C° 0 mm 5 m/s 736 mmHg 83%
    20:00 -9°C° 0 mm 6 m/s 737 mmHg 84%
    21:00 -8°C° 0 mm 5 m/s 737 mmHg 84%
    22:00 -10°C° 0 mm 5 m/s 737 mmHg 84%
    23:00 -10°C° 0 mm 5 m/s 738 mmHg 85%

    22 Février, Vendredi

    Heure Température Précipitation Vent Pression Humidité
    00:00 -10°C° 0 mm 5 m/s 738 mmHg 85%
    01:00 -11°C° 0 mm 5 m/s 739 mmHg 85%
    02:00 -11°C° 0 mm 5 m/s 739 mmHg 84%
    03:00 -12°C° 0.1 mm 5 m/s 740 mmHg 84%
    04:00 -12°C° 0.1 mm 5 m/s 740 mmHg 83%
    05:00 -14°C° 0.1 mm 6 m/s 741 mmHg 83%
    06:00 -14°C° 0 mm 6 m/s 741 mmHg 82%
    07:00 -15°C° 0 mm 6 m/s 742 mmHg 82%
    08:00 -16°C° 0 mm 6 m/s 743 mmHg 81%
    09:00 -15°C° 0 mm 6 m/s 743 mmHg 79%
    10:00 -15°C° 0 mm 7 m/s 744 mmHg 77%
    11:00 -15°C° 0 mm 7 m/s 744 mmHg 75%
    12:00 -14°C° 0 mm 7 m/s 744 mmHg 74%
    13:00 -14°C° 0 mm 7 m/s 744 mmHg 73%
    14:00 -12°C° 0 mm 6 m/s 744 mmHg 71%
    15:00 -12°C° 0 mm 6 m/s 745 mmHg 74%
    16:00 -12°C° 0 mm 5 m/s 745 mmHg 76%
    17:00 -12°C° 0 mm 5 m/s 745 mmHg 79%
    18:00 -13°C° 0.1 mm 5 m/s 745 mmHg 80%
    19:00 -13°C° 0.1 mm 5 m/s 745 mmHg 81%
    20:00 -12°C° 0.1 mm 4 m/s 746 mmHg 82%
    21:00 -14°C° 0 mm 4 m/s 746 mmHg 82%
    22:00 -15°C° 0 mm 4 m/s 746 mmHg 81%
    23:00 -16°C° 0 mm 4 m/s 747 mmHg 81%

    23 Février, Samedi

    Heure Température Précipitation Vent Pression Humidité
    00:00 -16°C° 0 mm 4 m/s 747 mmHg 82%
    01:00 -16°C° 0 mm 4 m/s 748 mmHg 84%
    02:00 -16°C° 0 mm 4 m/s 748 mmHg 85%
    03:00 -17°C° 0 mm 4 m/s 749 mmHg 85%
    04:00 -17°C° 0 mm 4 m/s 749 mmHg 86%
    05:00 -17°C° 0 mm 4 m/s 749 mmHg 86%
    06:00 -17°C° 0 mm 4 m/s 749 mmHg 86%
    07:00 -17°C° 0 mm 4 m/s 750 mmHg 87%
    08:00 -17°C° 0 mm 4 m/s 750 mmHg 87%
    09:00 -16°C° 0 mm 4 m/s 751 mmHg 85%
    10:00 -15°C° 0 mm 4 m/s 751 mmHg 84%
    11:00 -15°C° 0 mm 4 m/s 751 mmHg 82%
    12:00 -14°C° 0 mm 4 m/s 751 mmHg 81%
    13:00 -14°C° 0 mm 4 m/s 751 mmHg 81%
    14:00 -12°C° 0 mm 4 m/s 751 mmHg 81%
    15:00 -12°C° 0 mm 3 m/s 751 mmHg 83%
    16:00 -13°C° 0 mm 3 m/s 752 mmHg 85%
    17:00 -13°C° 0 mm 3 m/s 752 mmHg 87%
    18:00 -13°C° 0 mm 3 m/s 752 mmHg 88%
    19:00 -13°C° 0 mm 3 m/s 752 mmHg 89%
    20:00 -12°C° 0 mm 2 m/s 753 mmHg 90%
    21:00 -14°C° 0 mm 3 m/s 753 mmHg 91%
    22:00 -15°C° 0 mm 3 m/s 753 mmHg 92%
    23:00 -15°C° 0 mm 3 m/s 753 mmHg 93%

    24 Février, Dimanche

    Heure Température Précipitation Vent Pression Humidité
    00:00 -16°C° 0 mm 3 m/s 753 mmHg 93%
    01:00 -16°C° 0 mm 3 m/s 754 mmHg 93%
    02:00 -17°C° 0 mm 3 m/s 754 mmHg 93%
    03:00 -16°C° 0 mm 2 m/s 754 mmHg 93%
    04:00 -17°C° 0 mm 2 m/s 754 mmHg 93%
    05:00 -17°C° 0 mm 2 m/s 754 mmHg 94%
    06:00 -17°C° 0 mm 2 m/s 754 mmHg 93%
    07:00 -17°C° 0 mm 2 m/s 755 mmHg 92%
    08:00 -17°C° 0 mm 2 m/s 755 mmHg 91%
    09:00 -16°C° 0 mm 2 m/s 755 mmHg 87%
    10:00 -14°C° 0 mm 2 m/s 756 mmHg 84%
    11:00 -13°C° 0 mm 2 m/s 756 mmHg 80%
    12:00 -12°C° 0 mm 2 m/s 756 mmHg 79%
    13:00 -10°C° 0 mm 2 m/s 756 mmHg 77%
    14:00 -9°C° 0 mm 2 m/s 755 mmHg 76%
    15:00 -9°C° 0 mm 1 m/s 755 mmHg 78%
    16:00 -10°C° 0 mm 1 m/s 755 mmHg 80%
    17:00 -11°C° 0 mm 0 m/s 755 mmHg 82%
    18:00 -11°C° 0 mm 0 m/s 755 mmHg 83%
    19:00 -12°C° 0 mm 0 m/s 756 mmHg 83%
    20:00 -12°C° 0 mm 0 m/s 756 mmHg 83%
    21:00 -12°C° 0 mm 1 m/s 756 mmHg 84%
    22:00 -12°C° 0 mm 1 m/s 755 mmHg 84%
    23:00 -12°C° 0 mm 1 m/s 755 mmHg 84%
    Voir plus